Terminal Aerodrome Forecast
Issued by NWS

Home | Current Version | Previous Version | Graphics & Text | Print | Product List | Glossary On
Versions: 1 2 3 4 5 6 7 8 9 10 11 12 13 14 15
293
FTUS43 KMPX 201720
TAFRWF
TAF
KRWF 201720Z 2018/2118 16012KT 6SM -SHRA BR BKN015 OVC040
      TEMPO 2018/2020 3SM -SHRA BR OVC008
     FM202000 19010KT 3SM BR BKN007 OVC015
     FM202200 24013KT P6SM BKN015 BKN035
     FM210000 28012G20KT P6SM SCT040 SCT150
     FM210600 26007KT P6SM SKC
     FM211000 21005KT 4SM BR FEW007
     FM211400 19009KT P6SM SCT250=

USA.gov is the U.S. government's official web portal to all federal, state and local government web resources and services.